Simultaneous Nadir Overpasses (SNOs) Predictions

Prediction of SNOs between AQUA and METOP-C Satellite Orbit:

Table of predicted SNOs for the next 14.0 days since TLE Epoch: 7/19/2019
Index Date (AQUA) Time (AQUA) Lat,Lon (AQUA) SZA (AQUA ) Date (METOP-C) Time (METOP-C) Lat,Lon (METOP-C) SZA (METOP-C ) Distance(km) Time Diff (sec)
1 07/21/2019 20:58:16 73.79,-140.25 53.46 07/21/2019 20:57:39 73.77,-140.16 53.45 3.44 37
2 07/21/2019 21:47:43 -73.84, 27.29 126.48 07/21/2019 21:48:19 -73.83, 27.31 126.50 1.14 36
3 07/24/2019 16:32:31 73.78, -73.79 54.02 07/24/2019 16:32:02 73.76, -73.79 54.01 2.57 29
4 07/24/2019 17:21:58 -73.83, 93.75 125.92 07/24/2019 17:22:42 -73.82, 93.68 125.94 2.76 44
5 07/27/2019 11:17:04 -73.04,-173.44 126.17 07/27/2019 11:15:59 -72.97,-176.48 126.09 98.95 65
6 07/27/2019 12:06:45 73.78, -7.34 54.63 07/27/2019 12:06:23 73.79, -7.30 54.65 2.38 22
7 07/27/2019 12:56:12 -73.82, 160.20 125.32 07/27/2019 12:57:03 -73.85, 160.16 125.29 3.24 51
8 07/30/2019 06:51:25 -73.35,-107.64 125.18 07/30/2019 06:50:16 -73.26,-109.45 125.18 58.84 69
9 07/30/2019 07:41:00 73.77, 59.11 55.28 07/30/2019 07:40:46 73.78, 59.07 55.29 1.26 14
10 07/30/2019 08:30:27 -73.82,-133.36 124.66 07/30/2019 08:31:26 -73.83,-133.46 124.65 3.77 59
11 08/02/2019 02:25:45 -73.62, -41.76 124.20 08/02/2019 02:24:33 -73.54, -42.40 124.24 21.94 72
12 08/02/2019 03:15:15 73.77, 125.54 55.98 08/02/2019 03:15:09 73.76, 125.44 55.98 3.32 6
13 08/02/2019 04:04:43 -73.87, -67.04 123.91 08/02/2019 04:05:48 -73.87, -66.97 123.92 1.93 65




NCC Satellite Simultaneous Nadir Overpasses (SNOs) Prediction Service
